ITY1157 LIRF-LICR

Flight info

Callsign ITY1157
Flight time 0h 47m
Altitude 31000
Route RIFFI DCT PNZ DCT ISKIA DCT SOR/N0376F190 Q58 FOSQA
Aircraft A20N/M-SDE2E3FGHIRWXY/LB1

Departure

Time 2026-05-05 21:35
Airport Rome–Fiumicino Leonardo da Vinci International Airport (LIRF)

Arrival

Time 2026-05-05 22:22
Airport Reggio Calabria Airport (LICR)
Time Latitude Longitude Altitude Speed Heading
2026-05-05 21:21 41.79631 12.25786 20 ft 0 kts 116°
2026-05-05 21:24 41.79635 12.25776 20 ft 2 kts 123°
2026-05-05 21:25 41.79644 12.25756 20 ft 2 kts 120°
2026-05-05 21:25 41.79652 12.25739 20 ft 1 kts 123°
2026-05-05 21:25 41.79654 12.25733 20 ft 0 kts 70°
2026-05-05 21:25 41.79652 12.25728 20 ft 0 kts 28°
2026-05-05 21:26 41.79649 12.25727 20 ft 0 kts 19°
2026-05-05 21:26 41.79646 12.25725 20 ft 0 kts 26°
2026-05-05 21:30 41.79649 12.25727 20 ft 2 kts 26°
2026-05-05 21:30 41.79676 12.25745 20 ft 7 kts 26°
2026-05-05 21:30 41.79767 12.25803 20 ft 13 kts 26°
2026-05-05 21:30 41.79825 12.25833 19 ft 13 kts
2026-05-05 21:31 41.79955 12.25876 19 ft 15 kts 28°
2026-05-05 21:31 41.80020 12.25916 18 ft 16 kts 24°
2026-05-05 21:31 41.80162 12.26004 17 ft 17 kts 24°
2026-05-05 21:31 41.80274 12.26071 16 ft 12 kts 22°
2026-05-05 21:32 41.80281 12.26075 16 ft 0 kts 21°
2026-05-05 21:32 41.80309 12.26090 16 ft 6 kts 22°
2026-05-05 21:32 41.80348 12.26114 16 ft 12 kts 25°
2026-05-05 21:32 41.80465 12.26179 16 ft 15 kts 18°
2026-05-05 21:33 41.80523 12.26236 15 ft 16 kts 62°
2026-05-05 21:33 41.80566 12.26391 15 ft 18 kts 70°
2026-05-05 21:33 41.80633 12.26629 13 ft 21 kts 68°
2026-05-05 21:33 41.80689 12.26824 12 ft 23 kts 71°
2026-05-05 21:34 41.80736 12.26996 11 ft 15 kts 64°
2026-05-05 21:34 41.80788 12.27054 11 ft 15 kts 354°
2026-05-05 21:34 41.80924 12.26983 11 ft 16 kts 335°
2026-05-05 21:34 41.80938 12.26861 12 ft 15 kts 247°
2026-05-05 21:35 41.80881 12.26665 13 ft 61 kts 250°
2026-05-05 21:35 41.80640 12.25793 17 ft 135 kts 247°
2026-05-05 21:35 41.80110 12.23908 398 ft 178 kts 246°
2026-05-05 21:35 41.79803 12.22859 780 ft 188 kts 244°
2026-05-05 21:36 41.79311 12.20452 1676 ft 213 kts 261°
2026-05-05 21:36 41.79247 12.19149 2197 ft 220 kts 264°
2026-05-05 21:36 41.79186 12.16414 2872 ft 222 kts 262°
2026-05-05 21:36 41.78966 12.15077 3349 ft 221 kts 238°
2026-05-05 21:37 41.78007 12.13631 4447 ft 209 kts 219°
2026-05-05 21:37 41.76947 12.12368 5330 ft 213 kts 221°
2026-05-05 21:37 41.75860 12.11022 6209 ft 216 kts 222°
2026-05-05 21:37 41.74772 12.09663 7106 ft 218 kts 222°
2026-05-05 21:38 41.73665 12.08282 7972 ft 221 kts 222°
2026-05-05 21:38 41.72547 12.06890 8805 ft 225 kts 222°
2026-05-05 21:38 41.70995 12.05051 9889 ft 229 kts 212°
2026-05-05 21:38 41.70025 12.04476 10421 ft 232 kts 194°
2026-05-05 21:39 41.68427 12.04322 11220 ft 236 kts 182°
2026-05-05 21:39 41.66770 12.04340 11945 ft 242 kts 182°
2026-05-05 21:39 41.65074 12.04356 12706 ft 247 kts 182°
2026-05-05 21:39 41.63368 12.04352 13461 ft 250 kts 186°
2026-05-05 21:40 41.61082 12.03882 14473 ft 252 kts 194°
2026-05-05 21:40 41.59924 12.03641 14973 ft 255 kts 183°
2026-05-05 21:40 41.57655 12.04592 15769 ft 276 kts 145°
2026-05-05 21:40 41.56705 12.05773 16084 ft 288 kts 137°
2026-05-05 21:41 41.54802 12.08466 16605 ft 310 kts 136°
2026-05-05 21:41 41.53789 12.09891 16844 ft 322 kts 137°
2026-05-05 21:41 41.52198 12.12118 17173 ft 340 kts 137°
2026-05-05 21:41 41.50529 12.14440 17474 ft 357 kts 137°
2026-05-05 21:42 41.48763 12.16890 17767 ft 374 kts 137°
2026-05-05 21:42 41.46152 12.20007 18120 ft 392 kts 143°
2026-05-05 21:42 41.43963 12.22344 18436 ft 405 kts 144°
2026-05-05 21:42 41.42485 12.23920 18771 ft 410 kts 144°
2026-05-05 21:43 41.39516 12.27113 19546 ft 416 kts 144°
2026-05-05 21:43 41.38035 12.28720 19926 ft 419 kts 144°
2026-05-05 21:43 41.35781 12.31175 20485 ft 423 kts 144°
2026-05-05 21:43 41.32730 12.34514 21214 ft 430 kts 144°
2026-05-05 21:44 41.31179 12.36213 21580 ft 432 kts 144°
2026-05-05 21:44 41.28871 12.38743 22099 ft 437 kts 144°
2026-05-05 21:44 41.25729 12.42187 22767 ft 443 kts 145°
2026-05-05 21:44 41.24133 12.43935 23100 ft 446 kts 145°
2026-05-05 21:45 41.20945 12.47424 23764 ft 452 kts 145°
2026-05-05 21:45 41.18512 12.50082 24280 ft 455 kts 145°
2026-05-05 21:45 41.16889 12.51856 24795 ft 453 kts 145°
2026-05-05 21:45 41.13651 12.55395 25673 ft 453 kts 145°
2026-05-05 21:46 41.12027 12.57165 25995 ft 456 kts 145°
2026-05-05 21:46 41.09581 12.59828 26444 ft 460 kts 145°
2026-05-05 21:46 41.07104 12.62523 26974 ft 461 kts 145°
2026-05-05 21:46 41.04636 12.65211 27632 ft 460 kts 146°
2026-05-05 21:47 41.02178 12.67897 28268 ft 458 kts 146°
2026-05-05 21:47 40.99710 12.70596 28861 ft 456 kts 146°
2026-05-05 21:47 40.97272 12.73255 29403 ft 456 kts 146°
2026-05-05 21:47 40.94830 12.75911 29864 ft 456 kts 146°
2026-05-05 21:48 40.92385 12.78562 30234 ft 458 kts 146°
2026-05-05 21:48 40.89880 12.81269 30622 ft 460 kts 146°
2026-05-05 21:48 40.87436 12.83899 30983 ft 461 kts 146°
2026-05-05 21:48 40.84915 12.86605 31040 ft 462 kts 146°
2026-05-05 21:49 40.79945 12.91944 31052 ft 462 kts 146°
2026-05-05 21:49 40.74180 12.98138 31054 ft 461 kts 145°
2026-05-05 21:50 40.70021 13.02600 31052 ft 462 kts 145°
2026-05-05 21:50 40.65042 13.07938 31052 ft 462 kts 145°
2026-05-05 21:51 40.60096 13.13227 31052 ft 461 kts 145°
2026-05-05 21:51 40.54274 13.19438 31049 ft 462 kts 145°
2026-05-05 21:52 40.47639 13.26503 31051 ft 462 kts 145°
2026-05-05 21:53 40.42666 13.31785 31051 ft 462 kts 145°
2026-05-05 21:53 40.37661 13.37086 31048 ft 463 kts 144°
2026-05-05 21:54 40.32662 13.42372 31048 ft 463 kts 144°
2026-05-05 21:54 40.27655 13.47661 31048 ft 463 kts 144°
2026-05-05 21:55 40.22639 13.52947 31046 ft 464 kts 144°
2026-05-05 21:55 40.17638 13.58206 31046 ft 464 kts 144°
2026-05-05 21:56 40.12597 13.63496 31050 ft 463 kts 144°
2026-05-05 21:56 40.07579 13.68770 31048 ft 464 kts 144°
2026-05-05 21:57 40.02540 13.74068 31050 ft 464 kts 144°
2026-05-05 21:57 39.97536 13.79300 31053 ft 464 kts 144°
2026-05-05 21:58 39.92503 13.84546 31052 ft 464 kts 144°
2026-05-05 21:58 39.87424 13.89816 31050 ft 465 kts 144°
2026-05-05 21:59 39.82389 13.95012 31051 ft 464 kts 144°
2026-05-05 21:59 39.77340 14.00228 31050 ft 464 kts 144°
2026-05-05 22:00 39.72316 14.05419 31045 ft 463 kts 144°
2026-05-05 22:00 39.67262 14.10629 31049 ft 463 kts 144°
2026-05-05 22:01 39.62239 14.15799 31048 ft 464 kts 144°
2026-05-05 22:01 39.57188 14.20990 31046 ft 464 kts 144°
2026-05-05 22:02 39.52148 14.26160 31047 ft 464 kts 144°
2026-05-05 22:02 39.47086 14.31342 31043 ft 464 kts 144°
2026-05-05 22:03 39.42010 14.36527 31043 ft 464 kts 144°
2026-05-05 22:03 39.36959 14.41678 31045 ft 465 kts 144°
2026-05-05 22:04 39.31902 14.46825 31044 ft 465 kts 144°
2026-05-05 22:04 39.26801 14.52008 31043 ft 464 kts 144°
2026-05-05 22:05 39.21765 14.57116 31045 ft 465 kts 144°
2026-05-05 22:05 39.16659 14.62282 31046 ft 464 kts 144°
2026-05-05 22:06 39.11574 14.67426 30473 ft 469 kts 144°
2026-05-05 22:06 39.09025 14.70013 29486 ft 475 kts 144°
2026-05-05 22:06 39.06408 14.72664 28595 ft 477 kts 144°
2026-05-05 22:06 39.03803 14.75297 27739 ft 477 kts 144°
2026-05-05 22:07 39.01222 14.77898 26752 ft 480 kts 144°
2026-05-05 22:07 38.97736 14.81405 25268 ft 473 kts 144°
2026-05-05 22:07 38.96040 14.83109 24468 ft 466 kts 144°
2026-05-05 22:07 38.93531 14.85631 23172 ft 457 kts 144°
2026-05-05 22:08 38.91079 14.88092 21867 ft 449 kts 144°
2026-05-05 22:08 38.88621 14.90552 20594 ft 439 kts 144°
2026-05-05 22:08 38.86275 14.92889 19363 ft 429 kts 145°
2026-05-05 22:08 38.83939 14.95214 18123 ft 420 kts 144°
2026-05-05 22:09 38.81694 14.97452 16920 ft 411 kts 144°
2026-05-05 22:09 38.79458 14.99683 15674 ft 404 kts 144°
2026-05-05 22:09 38.77285 15.01852 14439 ft 397 kts 144°
2026-05-05 22:09 38.75145 15.03987 13202 ft 391 kts 144°
2026-05-05 22:10 38.73025 15.06100 11995 ft 384 kts 144°
2026-05-05 22:10 38.70949 15.08168 11084 ft 370 kts 144°
2026-05-05 22:10 38.68988 15.10215 10656 ft 360 kts 142°
2026-05-05 22:10 38.67128 15.12214 10429 ft 337 kts 142°
2026-05-05 22:11 38.65389 15.14089 10313 ft 321 kts 142°
2026-05-05 22:11 38.63730 15.15880 10210 ft 307 kts 142°
2026-05-05 22:11 38.62124 15.17611 10131 ft 294 kts 142°
2026-05-05 22:11 38.60574 15.19281 10040 ft 289 kts 142°
2026-05-05 22:12 38.59046 15.20921 9703 ft 289 kts 142°
2026-05-05 22:12 38.57500 15.22580 9399 ft 287 kts 142°
2026-05-05 22:12 38.55978 15.24208 9081 ft 286 kts 142°
2026-05-05 22:12 38.54461 15.25831 8774 ft 285 kts 142°
2026-05-05 22:13 38.52939 15.27460 8464 ft 283 kts 141°
2026-05-05 22:13 38.51422 15.29055 8158 ft 281 kts 144°
2026-05-05 22:13 38.49839 15.30484 7864 ft 279 kts 148°
2026-05-05 22:13 38.47682 15.32242 7456 ft 276 kts 149°
2026-05-05 22:14 38.46599 15.33118 7259 ft 275 kts 148°
2026-05-05 22:14 38.44986 15.34422 6974 ft 273 kts 148°
2026-05-05 22:14 38.43396 15.35709 6689 ft 271 kts 148°
2026-05-05 22:14 38.41876 15.37107 6383 ft 270 kts 135°
2026-05-05 22:15 38.40768 15.39016 6079 ft 268 kts 116°
2026-05-05 22:15 38.40023 15.41195 5800 ft 266 kts 111°
2026-05-05 22:15 38.39353 15.43355 5517 ft 264 kts 111°
2026-05-05 22:15 38.38447 15.46240 5197 ft 258 kts 112°
2026-05-05 22:16 38.38005 15.47614 5057 ft 254 kts 113°
2026-05-05 22:16 38.37034 15.49471 4793 ft 248 kts 140°
2026-05-05 22:16 38.35575 15.50540 4591 ft 241 kts 158°
2026-05-05 22:16 38.34025 15.51272 4363 ft 237 kts 161°
2026-05-05 22:17 38.32482 15.51974 4137 ft 233 kts 160°
2026-05-05 22:17 38.30977 15.52697 3912 ft 229 kts 159°
2026-05-05 22:17 38.29488 15.53446 3687 ft 226 kts 158°
2026-05-05 22:17 38.28025 15.54120 3493 ft 221 kts 165°
2026-05-05 22:18 38.26555 15.54493 3309 ft 215 kts 173°
2026-05-05 22:18 38.25085 15.54677 3220 ft 205 kts 175°
2026-05-05 22:18 38.23661 15.54833 3171 ft 204 kts 173°
2026-05-05 22:18 38.22300 15.55237 3039 ft 202 kts 158°
2026-05-05 22:19 38.21036 15.55987 2909 ft 196 kts 153°
2026-05-05 22:19 38.19853 15.56776 2842 ft 189 kts 152°
2026-05-05 22:19 38.18674 15.57564 2560 ft 195 kts 153°
2026-05-05 22:19 38.17467 15.58336 2243 ft 190 kts 153°
2026-05-05 22:20 38.16308 15.59051 1984 ft 184 kts 152°
2026-05-05 22:20 38.15203 15.59850 1706 ft 177 kts 149°
2026-05-05 22:20 38.14148 15.60543 1502 ft 161 kts 154°
2026-05-05 22:20 38.13139 15.61140 1460 ft 160 kts 154°
2026-05-05 22:21 38.12154 15.61751 1159 ft 155 kts 152°
2026-05-05 22:21 38.11244 15.62407 886 ft 145 kts 150°
2026-05-05 22:21 38.10395 15.63008 666 ft 135 kts 152°
2026-05-05 22:21 38.09573 15.63569 458 ft 133 kts 153°
2026-05-05 22:22 38.08746 15.64109 268 ft 132 kts 154°
2026-05-05 22:22 38.07930 15.64638 129 ft 132 kts 153°
2026-05-05 22:22 38.07132 15.65151 62 ft 117 kts 154°
2026-05-05 22:22 38.06708 15.65413 57 ft 41 kts 152°
2026-05-05 22:23 38.06473 15.65554 57 ft 27 kts 154°
2026-05-05 22:23 38.06485 15.65597 57 ft 15 kts 311°
2026-05-05 22:23 38.06573 15.65517 57 ft 16 kts 335°
2026-05-05 22:23 38.06683 15.65441 57 ft 20 kts 332°
2026-05-05 22:24 38.06824 15.65346 58 ft 24 kts 334°
2026-05-05 22:24 38.06979 15.65244 59 ft 24 kts 331°
2026-05-05 22:24 38.07124 15.65147 61 ft 23 kts 332°
2026-05-05 22:24 38.07251 15.65072 64 ft 14 kts
2026-05-05 22:25 38.07315 15.65165 65 ft 14 kts 62°
2026-05-05 22:25 38.07311 15.65263 65 ft 11 kts 147°
2026-05-05 22:25 38.07266 15.65331 64 ft 7 kts 110°
2026-05-05 22:25 38.07254 15.65365 64 ft 0 kts 118°